When you browse on this site, cookies collect data to enhance your experience and personalize the content and advertising you see.
Visit our Privacy Policy to learn more. By continuing to use the site, you agree to this use of cookies and data.
  • In Hungary
  • List of Countries
  • For 7 days
  • Water Temperature
  • Satellite Maps
  • Weather Map
  • News
  • Weather Widgets
  • user-avatar
    Login

    Hourly Weather Mezotur

    Today, 16 January, Wednesday

    Time Temperature Precipitation Wind Pressure Humidity
    00:00 -1°C° 0.1 mm 7 mps 751 mmHg 74%
    01:00 -1°C° 0.1 mm 7 mps 751 mmHg 74%
    02:00 0°C° 0.2 mm 8 mps 751 mmHg 75%
    03:00 0°C° 0.2 mm 8 mps 751 mmHg 75%
    04:00 0°C° 0.2 mm 8 mps 751 mmHg 76%
    05:00 0°C° 0.2 mm 8 mps 751 mmHg 76%
    06:00 0°C° 0.2 mm 8 mps 751 mmHg 77%
    07:00 0°C° 0.2 mm 8 mps 751 mmHg 78%
    08:00 0°C° 0.3 mm 7 mps 752 mmHg 79%
    09:00 0°C° 0.3 mm 7 mps 752 mmHg 80%
    10:00 0°C° 0.3 mm 7 mps 752 mmHg 81%
    11:00 +2°C° 0.1 mm 7 mps 753 mmHg 82%
    12:00 +2°C° 0.1 mm 6 mps 753 mmHg 82%
    13:00 +2°C° 0.1 mm 6 mps 753 mmHg 83%
    14:00 +2°C° 0 mm 5 mps 753 mmHg 83%
    15:00 +2°C° 0 mm 5 mps 753 mmHg 83%
    16:00 +1°C° 0 mm 4 mps 753 mmHg 83%
    17:00 0°C° 0 mm 4 mps 753 mmHg 84%
    18:00 0°C° 0 mm 4 mps 753 mmHg 85%
    19:00 0°C° 0 mm 3 mps 753 mmHg 85%
    20:00 0°C° 0 mm 3 mps 753 mmHg 86%
    21:00 0°C° 0 mm 3 mps 753 mmHg 86%
    22:00 -2°C° 0 mm 4 mps 753 mmHg 87%
    23:00 -1°C° 0 mm 4 mps 753 mmHg 88%

    Tomorrow, 17 January, Thursday

    Time Temperature Precipitation Wind Pressure Humidity
    00:00 -1°C° 0 mm 4 mps 753 mmHg 89%
    01:00 -1°C° 0 mm 5 mps 753 mmHg 90%
    02:00 -1°C° 0 mm 5 mps 753 mmHg 90%
    03:00 -1°C° 0 mm 5 mps 753 mmHg 89%
    04:00 -2°C° 0 mm 6 mps 753 mmHg 89%
    05:00 -2°C° 0 mm 6 mps 753 mmHg 88%
    06:00 -2°C° 0 mm 6 mps 753 mmHg 86%
    07:00 -2°C° 0 mm 6 mps 753 mmHg 85%
    08:00 -1°C° 0 mm 6 mps 753 mmHg 82%
    09:00 +1°C° 0 mm 6 mps 753 mmHg 80%
    10:00 +2°C° 0 mm 6 mps 753 mmHg 77%
    11:00 +3°C° 0 mm 6 mps 753 mmHg 77%
    12:00 +4°C° 0 mm 6 mps 753 mmHg 77%
    13:00 +6°C° 0 mm 5 mps 752 mmHg 77%
    14:00 +5°C° 0 mm 5 mps 752 mmHg 79%
    15:00 +3°C° 0 mm 5 mps 752 mmHg 80%
    16:00 +2°C° 0 mm 5 mps 752 mmHg 82%
    17:00 +2°C° 0 mm 5 mps 752 mmHg 81%
    18:00 +2°C° 0 mm 5 mps 751 mmHg 80%
    19:00 +2°C° 0 mm 6 mps 751 mmHg 79%
    20:00 +2°C° 0.1 mm 6 mps 751 mmHg 81%
    21:00 +2°C° 0.1 mm 5 mps 751 mmHg 82%
    22:00 +2°C° 0.1 mm 5 mps 751 mmHg 83%
    23:00 +2°C° 1.1 mm 5 mps 751 mmHg 86%

    Day after tomorrow, 18 January, Friday

    Time Temperature Precipitation Wind Pressure Humidity
    00:00 +2°C° 1.1 mm 5 mps 751 mmHg 89%
    01:00 +3°C° 1.1 mm 4 mps 751 mmHg 91%
    02:00 +3°C° 0.6 mm 4 mps 751 mmHg 93%
    03:00 +3°C° 0.6 mm 3 mps 752 mmHg 94%
    04:00 +3°C° 0.6 mm 3 mps 752 mmHg 95%
    05:00 +3°C° 0.1 mm 3 mps 752 mmHg 92%
    06:00 +3°C° 0.1 mm 3 mps 753 mmHg 89%
    07:00 +3°C° 0.1 mm 3 mps 753 mmHg 86%
    08:00 +3°C° 0 mm 4 mps 754 mmHg 83%
    09:00 +3°C° 0 mm 4 mps 755 mmHg 80%
    10:00 +3°C° 0 mm 5 mps 755 mmHg 76%
    11:00 +3°C° 0 mm 5 mps 756 mmHg 71%
    12:00 +3°C° 0 mm 5 mps 756 mmHg 66%
    13:00 +3°C° 0 mm 5 mps 756 mmHg 60%
    14:00 +2°C° 0 mm 5 mps 756 mmHg 63%
    15:00 +3°C° 0 mm 4 mps 757 mmHg 66%
    16:00 +2°C° 0 mm 3 mps 757 mmHg 69%
    17:00 +1°C° 0 mm 3 mps 757 mmHg 71%
    18:00 +2°C° 0 mm 2 mps 758 mmHg 73%
    19:00 +1°C° 0 mm 2 mps 758 mmHg 75%
    20:00 +2°C° 0 mm 1 mps 758 mmHg 76%
    21:00 +1°C° 0 mm 1 mps 758 mmHg 77%
    22:00 +1°C° 0 mm 1 mps 759 mmHg 78%
    23:00 +1°C° 0 mm 1 mps 759 mmHg 79%

    19 January, Saturday

    Time Temperature Precipitation Wind Pressure Humidity
    00:00 +1°C° 0 mm 1 mps 759 mmHg 79%
    01:00 +1°C° 0 mm 1 mps 758 mmHg 80%
    02:00 +1°C° 0 mm 1 mps 758 mmHg 82%
    03:00 -1°C° 0 mm 2 mps 758 mmHg 83%
    04:00 -1°C° 0 mm 2 mps 758 mmHg 84%
    05:00 -1°C° 0 mm 2 mps 758 mmHg 83%
    06:00 -1°C° 0 mm 2 mps 758 mmHg 82%
    07:00 -1°C° 0 mm 2 mps 758 mmHg 81%
    08:00 -1°C° 0 mm 2 mps 758 mmHg 78%
    09:00 +1°C° 0 mm 2 mps 758 mmHg 75%
    10:00 +1°C° 0 mm 2 mps 758 mmHg 72%
    11:00 +1°C° 0.1 mm 2 mps 757 mmHg 72%
    12:00 +1°C° 0.1 mm 2 mps 757 mmHg 72%
    13:00 +1°C° 0.1 mm 2 mps 756 mmHg 72%
    14:00 +1°C° 0.2 mm 2 mps 756 mmHg 74%
    15:00 +1°C° 0.2 mm 2 mps 756 mmHg 77%
    16:00 +1°C° 0.2 mm 2 mps 755 mmHg 80%
    17:00 +1°C° 0.2 mm 2 mps 755 mmHg 82%
    18:00 -1°C° 0.2 mm 2 mps 755 mmHg 84%
    19:00 -1°C° 0.2 mm 2 mps 755 mmHg 86%
    20:00 -1°C° 0.1 mm 2 mps 755 mmHg 87%
    21:00 -1°C° 0.1 mm 3 mps 755 mmHg 88%
    22:00 -1°C° 0.1 mm 3 mps 755 mmHg 89%
    23:00 -1°C° 0.2 mm 3 mps 755 mmHg 91%

    20 January, Sunday

    Time Temperature Precipitation Wind Pressure Humidity
    00:00 -2°C° 0.2 mm 3 mps 755 mmHg 92%
    01:00 -2°C° 0.2 mm 3 mps 754 mmHg 93%
    02:00 -2°C° 0.3 mm 3 mps 754 mmHg 94%
    03:00 -2°C° 0.3 mm 3 mps 754 mmHg 94%
    04:00 -2°C° 0.3 mm 3 mps 754 mmHg 94%
    05:00 -2°C° 0.3 mm 3 mps 754 mmHg 94%
    06:00 -2°C° 0.3 mm 3 mps 754 mmHg 94%
    07:00 -2°C° 0.3 mm 3 mps 754 mmHg 94%
    08:00 -2°C° 0 mm 3 mps 754 mmHg 92%
    09:00 -1°C° 0 mm 3 mps 755 mmHg 91%
    10:00 -1°C° 0 mm 3 mps 755 mmHg 90%
    11:00 -1°C° 0 mm 3 mps 755 mmHg 86%
    12:00 0°C° 0 mm 3 mps 755 mmHg 82%
    13:00 0°C° 0 mm 3 mps 755 mmHg 78%
    14:00 0°C° 0 mm 3 mps 755 mmHg 78%
    15:00 -1°C° 0 mm 2 mps 756 mmHg 77%
    16:00 -1°C° 0 mm 2 mps 756 mmHg 77%
    17:00 -2°C° 0 mm 2 mps 756 mmHg 76%
    18:00 -2°C° 0 mm 2 mps 757 mmHg 74%
    19:00 -4°C° 0 mm 3 mps 758 mmHg 73%
    20:00 -4°C° 0 mm 3 mps 758 mmHg 75%
    21:00 -4°C° 0 mm 3 mps 759 mmHg 77%
    22:00 -4°C° 0 mm 4 mps 759 mmHg 78%
    23:00 -4°C° 0 mm 4 mps 760 mmHg 77%

    21 January, Monday

    Time Temperature Precipitation Wind Pressure Humidity
    00:00 -4°C° 0 mm 4 mps 760 mmHg 77%
    01:00 -4°C° 0 mm 4 mps 761 mmHg 76%
    02:00 -5°C° 0 mm 4 mps 761 mmHg 76%
    03:00 -5°C° 0 mm 3 mps 761 mmHg 76%
    04:00 -5°C° 0 mm 3 mps 762 mmHg 76%
    05:00 -5°C° 0 mm 3 mps 762 mmHg 77%
    06:00 -5°C° 0 mm 3 mps 763 mmHg 77%
    07:00 -4°C° 0 mm 2 mps 763 mmHg 78%
    08:00 -4°C° 0 mm 3 mps 763 mmHg 75%
    09:00 -4°C° 0 mm 4 mps 764 mmHg 71%
    10:00 -3°C° 0 mm 4 mps 764 mmHg 68%
    11:00 -3°C° 0 mm 4 mps 764 mmHg 66%
    12:00 -2°C° 0 mm 4 mps 764 mmHg 63%
    13:00 -2°C° 0 mm 4 mps 764 mmHg 61%
    14:00 -1°C° 0 mm 3 mps 764 mmHg 64%
    15:00 -2°C° 0 mm 3 mps 764 mmHg 68%
    16:00 -4°C° 0 mm 3 mps 764 mmHg 71%
    17:00 -4°C° 0 mm 3 mps 764 mmHg 73%
    18:00 -5°C° 0 mm 4 mps 764 mmHg 75%
    19:00 -5°C° 0 mm 4 mps 764 mmHg 77%
    20:00 -5°C° 0 mm 4 mps 763 mmHg 77%
    21:00 -7°C° 0 mm 4 mps 763 mmHg 77%
    22:00 -7°C° 0 mm 4 mps 763 mmHg 77%
    23:00 -7°C° 0 mm 4 mps 763 mmHg 78%
    Show more